Location: Bruch
(44.2051°N, 0.4120°E)
Time: 20:40:09
(UTC+00:00)

BREEZE M DEB (TANK) - Visible Passes

Search period start: 13 April 2021 00:00
Search period end: 23 April 2021 00:00
Orbit: 295 x 16147 km, 49.5° (Epoch: 13 April)

Date Brightness Start Highest point End Pass type
(mag) Time Alt. Az. Time Alt. Az. Time Alt. Az.
13 Apr 4.8 19:14:22 10° WNW 19:46:12 86° SSW 19:51:14 17° ESE visible
14 Apr 4.6 19:44:10 10° WNW 20:10:19 72° SW 20:14:21 22° SE visible
15 Apr 4.5 20:12:45 10° WNW 20:34:08 56° SW 20:37:28 26° SSE visible
16 Apr 4.6 20:40:31 10° WNW 20:57:36 41° WSW 21:00:35 25° S visible
17 Apr 5.0 21:07:49 10° WNW 21:20:44 28° WSW 21:23:42 19° SSW visible
18 Apr 5.4 21:35:04 10° WNW 21:43:35 19° W 21:46:49 13° SW visible
19 Apr 5.9 22:03:35 10° WNW 22:06:13 11° W 22:08:13 10° WSW visible
